• Welcome to DNForum.com - Domain Investor Forum, Free Domain Marketplace and a community for 45+ domain pros
    If you are new to domains and looking to buy, sell and learn about domains then you have come to the right place. DNForum is the oldest global domain name community on the internet and continues to grow every day. There are over 45,000 domainers on DNForum doing everything from buying domains, selling domains, using our free in-house built tools, learning about domains and discussing domains. Take a minute and Register.

Live Feed: .COM Domain Name Auctions

Our live domain auction feed offers an easy way to secure the perfect web address for your business. With a vast selection of listings, you'll find domains with SEO potential, brandability, and instant recognition.

Live 633,589 auctions 0 selected
Collections
Domain DL Current bid Bids Ends in Platform REC RE WFAY DW
azzurro30a.com 10 $1.00 0 Sep 13, 14:39 1 .com 2021 0
backpickleball.com 14 $1.00 0 Sep 13, 14:39 1 .com 3
besthomesitegood.com 16 $1.00 0 Sep 13, 14:39 1 .com 2024 3
biancachiesa.com 12 $1.00 0 Sep 13, 14:39 1 .com 2024 3
bidz-app.com 8 $1.00 0 Sep 13, 14:39 1 .com 0
bluedevilcinemas.com 16 $1.00 0 Sep 13, 14:39 1 .com 3
colvana.com 7 $1.00 0 Sep 13, 14:39 3 .com .shop .store 0
confidenttocarry.com 16 $1.00 0 Sep 13, 14:39 1 .com 3
consultplaca.com 12 $1.00 0 Sep 13, 14:39 2 .com .shop 3
cryptocurrencypandit.com 20 $1.00 0 Sep 13, 14:39 1 .com 3
cynthiaheywood.com 14 $1.00 0 Sep 13, 14:39 1 .com 2
dreamerkidco.com 12 $1.00 0 Sep 13, 14:39 1 .com 3
dxtlandscaping.com 14 $1.00 0 Sep 13, 14:39 1 .com 2
equipmentkansascity.com 19 $1.00 0 Sep 13, 14:39 1 .com 3
eyhimoh.com 7 $1.00 0 Sep 13, 14:39 1 .com 0
freeomegaberry.com 14 $1.00 0 Sep 13, 14:39 1 .com 3
gchqwvjekkue.com 12 $1.00 0 Sep 13, 14:39 1 .com 0
gctsecurity.com 11 $1.00 0 Sep 13, 14:39 1 .com 2
hamdamovllc.com 11 $1.00 0 Sep 13, 14:39 1 .com 4
hatchbackshortfilm.com 18 $1.00 0 Sep 13, 14:39 1 .com 3
iambids.com 7 $1.00 0 Sep 13, 14:39 1 .com 2
idyllwyld.com 9 $1.00 0 Sep 13, 14:39 2 .com .net 2
iranefsha.com 9 $1.00 0 Sep 13, 14:39 1 .com 3
kristikoncaba.com 13 $1.00 0 Sep 13, 14:39 1 .com 3
landpolar.com 9 $1.00 0 Sep 13, 14:39 2 .com .shop 2
lesmagazine.com 11 $1.00 0 Sep 13, 14:39 1 .com 2
littlechurchofsaints.com 20 $1.00 0 Sep 13, 14:39 1 .com 4
macstreetzofficial.com 18 $1.00 0 Sep 13, 14:39 1 .com 4
melearningmedia.com 15 $1.00 0 Sep 13, 14:39 1 .com 3
morepromise.com 11 $1.00 0 Sep 13, 14:39 1 .com 2
nailsfirstaid.com 13 $1.00 0 Sep 13, 14:39 1 .com 3
nurseparalegals.com 15 $1.00 0 Sep 13, 14:39 1 .com 3
nutcrackerschool.com 16 $1.00 0 Sep 13, 14:39 1 .com 2
photondg6.com 9 $1.00 0 Sep 13, 14:39 1 .com 0
probationtermination.com 20 $1.00 0 Sep 13, 14:39 1 .com 2
ptcargoplus.com 11 $1.00 0 Sep 13, 14:39 1 .com 3
puppytrainingmadesimple.com 23 $1.00 0 Sep 13, 14:39 1 .com 4
shineinfosystems.com 16 $1.00 0 Sep 13, 14:39 1 .com 3
shopcharmnbliss.com 15 $1.00 0 Sep 13, 14:39 1 .com 4
sitewebcreator.com 14 $1.00 0 Sep 13, 14:39 1 .com 3
srcrtt.com 6 $1.00 0 Sep 13, 14:39 1 .com 2
totalproremodeling.com 18 $1.00 0 Sep 13, 14:39 1 .com 3
transsites.com 10 $1.00 0 Sep 13, 14:39 1 .com 2
treecellphonetracker.com 20 $1.00 0 Sep 13, 14:39 1 .com 4
ts5168.com 6 $1.00 0 Sep 13, 14:39 2 .com .net 0
ukphotographyreview.com 19 $1.00 0 Sep 13, 14:39 2 .co.uk .com 3
unwindwithsnehal.com 16 $1.00 0 Sep 13, 14:39 1 .com 0
winescrutiny.com 12 $1.00 0 Sep 13, 14:39 1 .com 2
wittywitchy.com 11 $1.00 0 Sep 13, 14:39 1 .com 2
worldsbestmeal.com 14 $1.00 0 Sep 13, 14:39 1 .com 3
zeschkeseptic.com 13 $1.00 0 Sep 13, 14:39 1 .com 0
abscookie.com 9 $1.00 0 Sep 13, 14:40 1 .com 2021 2
arthaservice.com 12 $1.00 0 Sep 13, 14:40 1 .com 2024 2
authsouthernfood.com 16 $1.00 0 Sep 13, 14:40 1 .com 2024 3
bestloanrateonline.com 18 $1.00 0 Sep 13, 14:40 1 .com 2013 4
billedapp.com 9 $1.00 0 Sep 13, 14:40 1 .com 2021 2
binsaeedgujranwala.com 18 $1.00 0 Sep 13, 14:40 1 .com 3
bodykineticsonline.com 18 $1.00 0 Sep 13, 14:40 1 .com 2013 3
brokersdigital.com 14 $1.00 0 Sep 13, 14:40 1 .com 2009 2
bullardrealty1.com 14 $1.00 0 Sep 13, 14:40 1 .com 2007 0
businesscapitalaccelerator.com 26 $1.00 0 Sep 13, 14:40 1 .com 3
cestmontreal.com 12 $1.00 0 Sep 13, 14:40 1 .com 2
chileverdeai.com 12 $1.00 0 Sep 13, 14:40 1 .com 3
columbiasportsmen.com 17 $1.00 0 Sep 13, 14:40 4 .com .info .net 2
commercialtrucksonly.com 20 $1.00 0 Sep 13, 14:40 1 .com 3
divaskreationz.com 14 $1.00 0 Sep 13, 14:40 1 .com 0
doingdemo.com 9 $1.00 0 Sep 13, 14:40 1 .com 2
elivoo.com 6 $1.00 0 Sep 13, 14:40 1 .com 3
erinbykwon.com 10 $1.00 0 Sep 13, 14:40 1 .com 3
f257.com 4 $1.00 0 Sep 13, 14:40 4 .com .lol .top 0
familyphotoarchives.com 19 $1.00 0 Sep 13, 14:40 1 .com 3
fenista.com 7 $1.00 0 Sep 13, 14:40 1 .com 0
flashphleb.com 10 $1.00 0 Sep 13, 14:40 1 .com 3
friendology101.com 14 $1.00 0 Sep 13, 14:40 1 .com 0
glmrd.com 5 $1.00 0 Sep 13, 14:40 1 .com 2
globalsentiment.com 15 $1.00 0 Sep 13, 14:40 4 .com .net .org 2
godlc.com 5 $1.00 0 Sep 13, 14:40 2 .com .icu 2
kcmmg.com 5 $1.00 0 Sep 13, 14:40 1 .com 0
llvp.com 4 $6.00 2 Sep 13, 14:40 5 .com .de .org 0
lyonbeckwith.com 12 $1.00 0 Sep 13, 14:40 1 .com 2
marionststudio.com 14 $1.00 0 Sep 13, 14:40 1 .com 3
maximodata.com 10 $1.00 0 Sep 13, 14:40 1 .com 2
menatcapital.com 12 $1.00 0 Sep 13, 14:40 2 .com .net 2
mortgageplanner.com 15 $6.00 2 Sep 13, 14:40 8 .app .co.uk .com 2
motiongregaiello.com 16 $1.00 0 Sep 13, 14:40 1 .com 3
mrsadhd.com 7 $1.00 0 Sep 13, 14:40 1 .com 3
myalertapp.com 10 $1.00 0 Sep 13, 14:40 2 .com .xyz 3
nataliakurilyak.com 15 $1.00 0 Sep 13, 14:40 1 .com 4
onlyonasuperyacht.com 17 $1.00 0 Sep 13, 14:40 1 .com 3
packinghelper.com 13 $1.00 0 Sep 13, 14:40 1 .com 2
palmstreetsocialclub.com 20 $1.00 0 Sep 13, 14:40 1 .com 4
pleasanthomefarmllc.com 19 $1.00 0 Sep 13, 14:40 1 .com 3
rescuewax.com 9 $1.00 0 Sep 13, 14:40 1 .com 2
sanclementeacupuncture.com 22 $1.00 0 Sep 13, 14:40 3 .com .net .org 3
searchcareerpath.com 16 $1.00 0 Sep 13, 14:40 1 .com 3
sexnowlive.com 10 $1.00 0 Sep 13, 14:40 1 .com 3
slcpglobalsolutions.com 19 $1.00 0 Sep 13, 14:40 1 .com 0
sportgamblingaimeta.com 19 $1.00 0 Sep 13, 14:40 1 .com 4
sproutspike.com 11 $1.00 0 Sep 13, 14:40 1 .com 2
sukratray.com 9 $1.00 0 Sep 13, 14:40 1 .com 3
540,501–540,600 of 633,589
Back
Top Bottom